Location: Charleston
(38.3500°N, 81.6330°W)
Time: 05:13:47
(UTC-04:00)

Daily predictions for brighter satellites

Satellite Brightness Start Highest point End
(mag) Time Altitude Azimuth Time Altitude Azimuth Time Altitude Azimuth
ATLAS CENTAUR R/B 4.2 00:16:15 84° N 00:16:15 84° N 00:37:43 10° NE
Cosmos 2278 Rocket 4.4 00:24:00 10° N 00:25:52 20° N 00:25:52 20° N
ATLAS 3B R/B 4.2 02:25:38 32° NNW 02:25:38 32° NNW 02:31:18 10° NNE
CZ-3A R/B 4.1 02:45:24 59° SE 02:45:51 60° ESE 03:23:56 10° NE
Cosmos 2369 Rocket 4.1 02:49:24 10° N 02:52:13 26° NNE 02:52:13 26° NNE
Cosmos 1943 Rocket 4.4 03:01:38 10° N 03:05:52 21° NE 03:08:54 14° E
SL-16 R/B 4.4 03:19:50 16° NNW 03:19:50 16° NNW 03:21:48 10° N
USA 234 4.2 03:16:39 10° ENE 03:21:30 36° ESE 03:21:30 36° ESE
CZ-4C R/B 4.1 03:26:08 22° NNW 03:26:08 22° NNW 03:29:51 10° NNE
ARIANE 5 R/B 3.8 03:31:11 10° NNE 03:34:52 37° ENE 03:34:52 37° ENE
ATLAS 5 CENTAUR R/B 3.4 03:38:58 34° NE 03:38:58 34° NE 03:41:56 10° NE
NOSS 3-2 (A) 4.5 03:40:16 37° NNW 03:40:16 37° NNW 03:45:32 10° NNE
SL-16 R/B 3.2 03:41:16 46° ESE 03:42:22 51° ENE 03:48:20 10° N
Cosmos 1709 Rocket 4.3 03:39:32 10° N 03:45:50 63° E 03:45:50 63° E
CENTAUR R/B 2.9 03:47:14 53° E 03:47:14 53° E 03:53:18 10° NE
ADEOS 4.4 03:49:55 10° N 03:53:29 44° N 03:53:29 44° N
NOSS 3-2 (C) 4.4 03:58:41 36° NW 03:58:41 36° NW 04:04:30 10° NNE
CZ-2D R/B 2.6 03:56:15 10° NNE 04:00:54 56° ENE 04:00:54 56° ENE
UNKNOWN OBJECT B 4.2 04:19:42 10° NNE 04:21:58 34° NNE 04:21:58 34° NNE
Resurs 1-4 Rocket 2.0 04:19:55 10° N 04:24:59 78° NW 04:24:59 78° NW
Cosmos 1943 4.5 04:28:04 27° NW 04:28:04 27° NW 04:32:14 10° N
Okean O Rocket 3.0 04:26:56 10° NNE 04:31:03 36° E 04:32:24 29° SE
Meteor 2-11 Rocket 4.4 04:34:09 60° W 04:34:23 60° W 04:40:24 10° N
Cosmos 2369 Rocket 4.4 04:33:44 10° NW 04:33:56 11° NW 04:33:56 11° NW
COSMOS 2406 3.1 04:37:42 61° SSW 04:38:46 87° ESE 04:44:33 10° NNE
Cosmos 1455 4.2 04:43:33 21° NNW 04:43:33 21° NNW 04:45:07 10° N
Sich 1 Rocket 3.5 04:42:07 10° N 04:46:31 87° ENE 04:46:53 75° SSE
Cosmos 2315 Rocket 4.4 04:47:44 40° W 04:47:56 40° WNW 04:53:49 10° N
Cosmos 1408 3.0 04:44:45 10° N 04:48:29 61° E 04:48:48 58° ESE
CZ-4B R/B 4.0 04:43:40 10° NNE 04:48:46 47° E 04:52:34 17° SSE
MOZ.5/SAFIR/RUBIN 5/SL-8 4.3 04:45:13 10° SSE 04:49:44 58° ENE 04:54:18 10° N
Cosmos 1943 Rocket 2.2 04:44:27 10° NNW 04:49:59 56° WSW 04:50:12 55° WSW
Cosmos 2285 Rocket 4.0 04:43:47 10° NNW 04:50:14 81° ENE 04:56:37 10° SSE
Cosmos 1933 3.2 04:51:40 88° S 04:51:43 89° ENE 04:55:50 10° N
Cosmos 407 Rocket 4.2 04:51:34 25° SSE 04:54:23 52° ESE 04:59:30 10° NNE
IRS-1C Rocket 4.2 04:50:06 10° NNE 04:55:23 73° ESE 04:58:06 29° S
Cosmos 1862 Rocket 4.5 04:57:10 34° NW 04:57:10 34° NW 05:00:23 10° N
Okean 1-7 4.0 04:54:53 21° SSE 04:57:29 46° E 05:01:40 10° NNE
SeaSat 1 3.0 04:53:33 10° SE 04:58:22 59° ENE 05:03:13 10° NNW
Atlas Centaur 2 3.0 04:59:34 22° SSE 04:59:34 22° SSE 05:02:54 10° ESE
GPS 2-05 Rocket1 3.8 05:05:26 36° SE 05:05:26 36° SE 05:08:03 10° E
USA 234 3.5 04:59:25 10° NE 05:05:48 57° NW 05:08:50 31° W
CZ-4B R/B 3.2 05:02:48 10° NNE 05:06:28 58° E 05:08:16 28° S
Aureole 3 Rocket 3.7 05:05:11 12° S 05:11:35 86° E 05:16:26 10° N
ARIANE 5 R/B 3.9 05:11:02 10° NNW 05:14:57 22° WNW 05:15:13 22° WNW
Cosmos 1656 Rocket 3.4 05:09:40 10° NNW 05:15:05 74° WSW 05:20:28 10° SSE
Cosmos 1825 2.2 05:11:28 10° NNW 05:15:11 55° W 05:15:22 54° WSW
Okean 2 Rocket 3.3 05:14:39 10° N 05:19:10 75° E 05:23:41 10° SSE
PSLV R/B 3.8 05:16:20 10° N 05:20:03 55° WNW 05:20:51 44° WSW
Abrixas rocket 3.5 05:19:34 16° NW 05:21:55 39° NNE 05:25:05 10° E
ATLAS 5 CENTAUR R/B 3.7 05:20:32 15° WNW 05:22:10 17° NW 05:25:34 10° N
Nadezhda 1 Rocket 4.0 05:21:21 20° SSW 05:25:46 61° W 05:32:04 10° N
ADEOS Rocket 4.0 05:18:03 10° NNE 05:25:48 64° E 05:33:20 10° S
SL-16 R/B 3.6 05:26:22 23° W 05:26:22 23° W 05:31:03 10° NW
PSLV R/B 3.2 05:28:59 42° W 05:29:57 66° SSW 05:33:20 10° ESE
Cosmos 1782 Rocket 3.5 05:28:16 10° NNW 05:32:33 60° W 05:36:48 10° S
PAYLOAD B 4.2 05:29:18 10° N 05:34:45 62° WNW 05:39:16 15° SSW
CENTAUR R/B 3.7 05:34:26 19° W 05:37:49 30° NW 05:43:49 10° NNE
AVUM R/B 3.8 05:37:18 34° W 05:38:03 41° WNW 05:41:14 10° N
CZ-2D R/B 3.7 05:37:47 10° NNW 05:40:59 17° WNW 05:42:14 15° W
Cosmos 1190 Rocket 4.4 05:40:10 22° SW 05:43:10 43° WNW 05:48:07 10° N
COSMOS 2487 3.1 05:44:03 26° WSW 05:45:30 38° WNW 05:48:55 10° N
BREEZE-M DEB (TANK) 3.5 05:45:01 26° W 05:46:17 49° NNW 05:51:05 10° NE
Cosmos 2181 Rocket 4.1 05:39:55 10° S 05:46:21 86° E 05:52:46 10° N
CZ-2C R/B 4.2 05:42:43 10° SSW 05:46:47 35° W 05:50:52 10° NNW
Thor Agena Rocket 3.7 05:53:28 10° S 05:58:28 52° W 06:03:33 10° NNW
Cosmos 1954 Rocket 4.0 05:55:53 10° SSW 06:01:00 67° WNW 06:06:13 10° NNE
Cosmos 2154 Rocket 4.2 05:55:17 10° NNW 06:01:22 51° W 06:07:28 10° SSW
USA 129 2.2 06:04:11 22° NW 06:04:11 22° NW 06:05:01 10° NNW
Cosmos 1356 4.0 06:02:26 10° N 06:05:57 64° E 06:09:27 10° SSE
Okean O Rocket 3.1 06:03:56 10° NNW 06:07:09 20° WNW 06:09:51 12° WSW
Cosmos 1400 Rocket 4.0 06:05:58 10° N 06:09:43 46° ENE 06:13:27 10° SSE
Meteor PRIRODA 3.7 06:06:41 10° N 06:10:26 66° WNW 06:14:10 10° SSW
Cosmos 2278 3.8 06:04:53 10° NNW 06:10:39 84° ENE 06:16:21 10° SSE
CZ-4B R/B 4.4 06:08:47 10° NNE 06:13:18 75° ESE 06:17:40 10° S
Timation 2 Rocket 4.0 06:07:23 10° SSW 06:13:38 85° ESE 06:19:42 10° NNE
Meteor 2-10 Rocket 3.8 06:07:55 10° SSW 06:13:38 61° W 06:19:16 10° N
ADEOS II 2.1 06:08:42 10° N 06:13:54 63° WNW 06:19:04 10° SSW
Okean-O 3.0 06:14:00 10° N 06:18:14 45° WNW 06:22:27 10° SW
USA 116 4.5 06:15:13 10° S 06:19:57 54° W 06:25:08 10° NNW
Feng Yun 1-1 Rocket 4.3 06:14:55 10° N 06:20:12 59° WNW 06:25:33 10° SSW
PSLV R/B 4.4 06:20:58 10° N 06:24:55 33° WNW 06:28:51 10° SW
SL-8 Rocket 4.0 06:19:20 10° N 06:25:32 73° W 06:31:45 10° S
Cosmos 2369 3.7 06:19:58 10° NNW 06:25:44 81° WSW 06:31:27 10° SSE
Cosmos 1850 Rocket 4.0 06:20:58 10° SSW 06:26:14 81° WNW 06:31:36 10° NNE
Cosmos 2341 Rocket 4.5 06:21:30 10° NNW 06:27:19 40° W 06:33:10 10° SSW
CZ-4B R/B 4.5 06:25:07 10° NNW 06:28:58 21° WNW 06:32:50 10° WSW
Cosmos 489 Rocket 4.5 06:25:35 10° SSW 06:31:48 82° WNW 06:38:02 10° NNE
